NOAA 19 (33591 NORAD) Tracking and Keplerian Element Data

This shows tracking and keplerian element data for the satellite.

Feedback or suggestion? Click here.




ElementValue
Catalog33591
NameNOAA 19
Epoch Orbit82439
Epoch Day35.18130076
Epoch Year2025
RAAN99.0963
Inclination99.0158
Eccentricity0.0013609
Argument of Perigee2.083
Mean Anonmoly358.0396
Mean Motion14.13276739
Decay Rate2.99E-06
L11 33591U 09005A 25035.18130076 .00000299 00000+0 18390-3 0 9999
L22 33591 99.0158 99.0963 0013609 2.0830 358.0396 14.13276739824396



Live tracking and technical data element details for NOAA 19 (NORAD 33591). NOAA 19 can be tracked NOW for your location showing map with azimuth and elevation plus other details from your city location.







IsCatalogInMostPopularTable: catalog: 33591, numindb: 2288
Update: records affected: 1



GetName: 33591 NOAA 19

Hit Count: updated at: Fri, 14 Feb 2025 15:30:51 GMT